438  
SXUS52 KJAX 242014  
OSOJAX  
OTHER SURFACE OBSERVATIONS  
NATIONAL WEATHER SERVICE JACKSONVILLE FL  
300 PM EST WED FEB 24 2021  
 
FLZ020>025-030>033-035>038-040-242100-   
..FLORIDA
 
 
 
CITY SKY/WX TMP DP RH WIND PRES REMARKS  
CECIL FIELD SUNNY 82 46 28 SW14 30.10F  
HERLONG FIELD NOT AVBL  
FERNANDINA BCH NOT AVBL  
LAKE CITY FAIR 75 37 25 SW5G17 30.12S  
JUNIPER SPGS NOT AVBL  
BUNNELL NOT AVBL  
KEYSTONE HGTS CLEAR 77 36 22 SW12G18 30.11F  

 
 
GAZ132>136-149>154-162>166-242100-   
..GEORGIA
 
 
 
CITY SKY/WX TMP DP RH WIND PRES REMARKS  
JESUP FAIR 75 34 22 SW3 30.11F  
HOMERVILLE FAIR 73 36 25 S7 30.12S  
SWAINSBORO FAIR 73 36 25 S10G17 30.10F  
CORDELE NOT AVBL  
EASTMAN FAIR 74 34 22 W8G16 30.10F  

 
 
PLEASE NOTE: THESE OBSERVATIONS ARE NOT QUALITY CONTROLLED AND MAY  
NOT BE AVAILABLE AT ALL TIMES.  

 
 
 
CLICK HERE TO GO TO PREVIOUS BULLETINS.

The Nexlab FL Page
The Nexlab GA Page Main Text Page